Location: ???????????
(55.5758°N, 38.4970°E)
Time: 19:09:45
(UTC+00:00)

Cosmos 2333 Rocket - Pass Details

Date: 15 November 2025
Orbit: 837 x 865 km, 70.8° (Epoch: 14 December)

Event Time Altitude Azimuth Distance (km) Brightness Sun altitude
Exits shadow 02:17:28 22° 333° (NNW) 1,810 3.7 -22.6°
Maximum altitude 02:17:54 22° 340° (NNW) 1,803 3.7 -22.6°
Drops below altitude 10° 02:22:20 10° 30° (NNE) 2,517 5.0 -22.0°
Sets 02:25:25 0° 45° (NE) 3,458 6.0 -21.5°
